OneWeb SL0135

operational
NORAD ID: 47259 Int'l Des: 2020-100 Owner: ONEWEB Country: UK Constellation: oneweb
LEOCIRCULARPOLARONEWEB_TYPE

Über OneWeb SL0135

Beschreibung wird geladen...

Live-Position

3D-Globus wird geladen...

Nächste Überflüge

Höhenverlauf

Altitude vs Time

uPlot chart will show altitude changes over time

Zweizeiliger Elementsatz

1 47259U 20100B 25304.73633683 -.00000175 00000-0 -52202-3 0 9992
2 47259 87.8975 36.0372 0001912 101.2346 258.8997 13.12440555234595
Epoch: 31. Okt. 2025 • Age: 23 hours

Aktueller Status

Höhe 1237.5 km
Geschwindigkeit 7.23 km/s
Subsatellitenpunkt -57.84°S, 93.81°E
Startdatum 18. Dez. 2020
Alter 4.8 years
Typ internet

Technische Details

Klassifizierung Payload
Masse 148.00 kg
Trockenmasse 140.00 kg
Gesamtmasse 148.00 kg
Länge 1.30 m
Durchmesser 1.00 m
Spannweite 5.00 m
Form Trapezoid+2 pan
Hersteller ONEWUS
Bus-Typ ARROW
Phasenstatus In Orbit
Besitzer/Staat ONEWEB/UK

Große Konstellationen

Loading constellations...